Overview Statistics Trail Chart Weather Telemetry Raw packets
 

This is the latest recevied weather packets stored in our database for station/object AI5BL. If no packets are shown the sender has not sent any weather packets the latest 10 day(s).

<< 15 16 17 18 19 20 21 >>
Time Temp. Humidity Pressure Rain* Wind** Luminosity Snow
1788545261 31.67° C 72% 1016.8 hPa 0 mm - 152 W/m² -
1788544956 32.22° C 72% 1016.9 hPa 0 mm - 97 W/m² -
1788544655 33.33° C 73% 1016.9 hPa 0 mm - 110 W/m² -
1788544353 32.78° C 70% 1017.1 hPa 0 mm - 899 W/m² -
1788544049 31.67° C 73% 1017.2 hPa 0 mm - 199 W/m² -
1788543745 32.22° C 73% 1017.2 hPa 0 mm - 86 W/m² -
1788543440 32.78° C 71% 1017.2 hPa 0 mm - 67 W/m² -
1788543140 33.89° C 68% 1017.1 hPa 0 mm - 71 W/m² -
1788542837 33.89° C 69% 1017.1 hPa 0 mm - 209 W/m² -
1788542536 33.33° C 68% 1017 hPa 0 mm - 887 W/m² -
1788542231 32.78° C 70% 1017.5 hPa 0 mm - 797 W/m² -
1788541926 32.78° C 70% 1017.4 hPa 0 mm - 829 W/m² -
1788541623 33.89° C 68% 1017.5 hPa 0 mm - 289 W/m² -
1788541343 33.89° C 70% 1017.6 hPa 0 mm - 276 W/m² -
1788541017 33.33° C 68% 1017.5 hPa 0 mm - 289 W/m² -
1788540716 32.78° C 69% 1017.6 hPa 0 mm - 743 W/m² -
1788540412 32.78° C 66% 1017.9 hPa 0 mm - 738 W/m² -
1788540106 32.78° C 69% 1017.9 hPa 0 mm - 725 W/m² -
1788539803 32.22° C 70% 1017.8 hPa 0 mm - 708 W/m² -
1788539498 31.67° C 75% 1017.8 hPa 0 mm - 705 W/m² -
1788539191 31.67° C 73% 1018.1 hPa 0 mm - 511 W/m² -
1788538886 31.11° C 77% 1018 hPa 0 mm - 657 W/m² -
1788538581 29.44° C 82% 1018.2 hPa 0 mm - 722 W/m² -
1788538276 29.44° C 85% 1018.4 hPa 0 mm - 554 W/m² -
1788537973 28.89° C 83% 1018.4 hPa 0 mm - 221 W/m² -

* Rain latest hour (hover to see other rain measurements)
** Current wind speed in m/s (hover to see current wind gust speed)